St. David's, Bermuda

5:16 PM ADT on June 28, 2017 (GMT -0300)
Bermuda International

Weather History for TXKF - February, 2013

Change the Weather History Date:

Monday, February 25, 2013

  Actual Average Record
Temperature  
Mean Temperature 62 °F -  
Max Temperature 64 °F 66 °F 73 °F (2012)
Min Temperature 60 °F 58 °F 51 °F (2011)
Degree Days  
Heating Degree Days 3    
Growing Degree Days 12 (Base 50)    
Moisture  
Dew Point 50 °F    
Average Humidity 59    
Maximum Humidity 73    
Minimum Humidity 47    
Precipitation  
Precipitation 0.01 in - - ()
Sea Level Pressure  
Sea Level Pressure 29.93 in    
Wind  
Wind Speed 18 mph ()    
Max Wind Speed 24 mph    
Max Gust Speed 34 mph    
Visibility 6.9 miles    
Events      
Averages and records for this station are not official NWS values.
T = Trace of Precipitation, MM = Missing Value Source: Averaged Metar Reports

Daily Weather History Graph

Daily Weather History Graph

Search for Another Location

Airport or City:

Trip Planner

Search our weather history database for the weather conditions in past years. The results will help you decide how hot, cold, wet, or windy it might be!

Date:

Astronomy

Feb. 25, 2013 Rise Set
Actual Time 6:50 AM AST 6:13 PM AST
Civil Twilight 6:25 AM AST 6:37 PM AST
Nautical Twilight 5:57 AM AST 7:06 PM AST
Astronomical Twilight 5:29 AM AST 7:34 PM AST
Moon 6:18 PM AST (2/25) 6:20 AM AST (2/25)
Length of Visible Light 12h 12m
Length of Day
11h 22m
Full, 100% of the Moon is Illuminated
Feb 25
Full
Feb 25
Full
Mar 4
Last Quarter
Mar 11
New
Mar 19
First Quarter

Hourly Weather History & Observations

Time (AST) Temp. Dew Point Humidity Pressure Visibility Wind Dir Wind Speed Gust Speed Precip Events Conditions
12:55 AM 66.2 °F 57.2 °F 73% 29.77 in 6.2 mi NW 21.9 mph - N/A   Scattered Clouds
1:55 AM 64.4 °F 55.4 °F 73% 29.80 in 6.2 mi NW 21.9 mph - N/A   Scattered Clouds
2:00 AM 65 °F 55 °F 62% 29.80 in 9 mi WNW 20.7 mph - -   Partly Cloudy
2:55 AM 64.4 °F 53.6 °F 68% 29.80 in 6.2 mi WNW 21.9 mph - N/A   Scattered Clouds
3:55 AM 64.4 °F 50.0 °F 59% 29.77 in 6.2 mi WNW 21.9 mph - N/A   Scattered Clouds
4:55 AM 64.4 °F 53.6 °F 68% 29.80 in 6.2 mi NW 20.7 mph - N/A   Mostly Cloudy
5:00 AM 64 °F 53 °F 58% 29.82 in 9 mi WNW 18.4 mph - -   Mostly Cloudy
5:55 AM 64.4 °F 51.8 °F 64% 29.83 in 6.2 mi WNW 23.0 mph - N/A   Mostly Cloudy
6:55 AM 64.4 °F 50.0 °F 59% 29.86 in 6.2 mi WNW 20.7 mph - N/A   Mostly Cloudy
7:55 AM 64.4 °F 51.8 °F 64% 29.86 in 6.2 mi WNW 19.6 mph - N/A   Mostly Cloudy
8:00 AM 64 °F 52 °F 55% 29.88 in 9 mi WNW 19.6 mph - -   Mostly Cloudy
8:55 AM 64.4 °F 51.8 °F 64% 29.89 in 6.2 mi NW 21.9 mph - N/A   Mostly Cloudy
9:55 AM 64.4 °F 50.0 °F 59% 29.92 in 6.2 mi NW 24.2 mph - N/A   Mostly Cloudy
10:55 AM 64.4 °F 50.0 °F 59% 29.92 in 6.2 mi NW 24.2 mph - N/A   Mostly Cloudy
11:00 AM 64 °F 50 °F 49% 29.94 in 9 mi WNW 20.7 mph - -   Partly Cloudy
11:55 AM 64.4 °F 48.2 °F 56% 29.95 in 6.2 mi NW 23.0 mph 34.5 mph N/A   Scattered Clouds
12:55 PM 64.4 °F 50.0 °F 59% 29.95 in 6.2 mi NW 23.0 mph - N/A   Mostly Cloudy
1:55 PM 62.6 °F 48.2 °F 59% 29.95 in 6.2 mi NW 23.0 mph - N/A   Mostly Cloudy
2:00 PM 63 °F 49 °F 49% 29.95 in 9 mi WNW 19.6 mph - -   Partly Cloudy
2:55 PM 62.6 °F 48.2 °F 59% 29.95 in 6.2 mi NW 24.2 mph - N/A   Mostly Cloudy
3:55 PM 62.6 °F 48.2 °F 59% 29.95 in 6.2 mi NW 21.9 mph - N/A   Mostly Cloudy
4:55 PM 60.8 °F 46.4 °F 59% 29.98 in 6.2 mi NW 20.7 mph - N/A   Mostly Cloudy
5:00 PM 62 °F 47 °F 47% 29.99 in 9 mi NW 21.9 mph - -   Partly Cloudy
5:55 PM 60.8 °F 46.4 °F 59% 29.98 in 6.2 mi NW 18.4 mph - N/A   Mostly Cloudy
6:55 PM 60.8 °F 44.6 °F 55% 30.01 in 6.2 mi NW 15.0 mph - N/A   Mostly Cloudy
7:55 PM 60.8 °F 46.4 °F 59% 30.04 in 6.2 mi NW 15.0 mph - N/A   Mostly Cloudy
8:00 PM 61 °F 46 °F 48% 30.05 in 9 mi NW 15.0 mph - -   Mostly Cloudy
8:55 PM 60.8 °F 50.0 °F 68% 30.06 in 6.2 mi NW 16.1 mph - N/A   Mostly Cloudy
9:55 PM 60.8 °F 48.2 °F 63% 30.06 in 6.2 mi North 12.7 mph - N/A   Mostly Cloudy
10:55 PM 60.8 °F 46.4 °F 59% 30.09 in 6.2 mi North 12.7 mph - N/A   Overcast
11:00 PM 61 °F 46 °F 47% 30.10 in 9 mi North 12.7 mph - -   Overcast
11:55 PM 60.8 °F 42.8 °F 52% 30.09 in 6.2 mi NNW 11.5 mph - N/A   Overcast